This demonstration page uses our WeatherBlox Daily Observations layout. Learn more.

Left ArrowRight Arrow

Hourly Observations for January 27, 2022

Temp ( °F °C ) Dew Point ( °F °C ) Humidity (%) Winds ( mph kmh ) Pressure ( in mb ) Visibility ( mi km ) Precip ( " mm )
12:52 am 00:52 Mostly Cloudy 30 -1.1 17 -8.3 58 58 SW 7 11 30.09 1019 10 16 0.00 0.00
1:52 am 01:52 Partly Cloudy 30 -1.1 18 -7.8 61 61 Calm 30.09 1019 10 16 0.00 0.00
2:52 am 02:52 Clear 28 -2.2 19 -7.2 69 69 Calm 30.11 1020 10 16 0.00 0.00
3:52 am 03:52 Partly Cloudy 24 -4.4 17 -8.3 75 75 SSW 3 6 30.13 1020 10 16 0.00 0.00
4:52 am 04:52 Cloudy 25 -3.9 19 -7.2 78 78 Calm 30.14 1021 10 16 0.00 0.00
5:52 am 05:52 Mostly Cloudy 25 -3.9 19 -7.2 78 78 Calm 30.16 1022 10 16 0.00 0.00
6:52 am 06:52 Partly Cloudy 26 -3.3 20 -6.7 78 78 NNW 8 13 30.19 1022 10 16 0.00 0.00
7:52 am 07:52 Partly Cloudy 29 -1.7 20 -6.7 69 69 NW 12 19 30.22 1023 10 16 0.00 0.00
8:52 am 08:52 Mostly Cloudy 32 0 22 -5.6 66 66 NNW 7 11 30.24 1024 10 16 0.00 0.00
9:52 am 09:52 Mostly Cloudy 36 2.2 22 -5.6 57 57 NW 7 11 30.26 1025 10 16 0.00 0.00
10:52 am 10:52 Cloudy 38 3.3 23 -5 55 55 NNW 15 24 30.29 1026 10 16 0.00 0.00
11:52 am 11:52 Mostly Cloudy 41 5 23 -5 49 49 NNW 16 26 30.29 1026 10 16 0.00 0.00
12:52 pm 12:52 Mostly Cloudy 42 5.6 22 -5.6 45 45 NNW 17 28 30.28 1025 10 16 0.00 0.00
1:52 pm 13:52 Mostly Cloudy 42 5.6 21 -6.1 43 43 N 15 24 30.28 1025 10 16 0.00 0.00
2:52 pm 14:52 Mostly Cloudy 42 5.6 20 -6.7 41 41 N 13 20 30.28 1025 10 16 0.00 0.00
3:52 pm 15:52 Mostly Cloudy 43 6.1 21 -6.1 42 42 N 15 24 30.29 1026 10 16 0.00 0.00
4:52 pm 16:52 Cloudy 40 4.4 21 -6.1 47 47 NNW 12 19 30.31 1027 8 13 0.00 0.00
5:52 pm 17:52 Mostly Cloudy 37 2.8 21 -6.1 52 52 WNW 8 13 30.33 1027 10 16 0.00 0.00
6:52 pm 18:52 Mostly Cloudy 36 2.2 26 -3.3 67 67 NNW 22 35 30.35 1028 10 16 0.00 0.00
7:52 pm 19:52 Mostly Cloudy 28 -2.2 19 -7.2 69 69 NNW 29 46 30.42 1030 10 16 0.00 0.00
7:59 pm 19:59 Cloudy 28 -2.2 18 -7.8 66 66 NNW 28 44 30.45 1031 10 16 0.00 0.00
8:45 pm 20:45 Cloudy 25 -3.9 16 -8.9 69 69 N 23 37 30.49 1033 10 16 0.00 0.00
8:52 pm 20:52 Cloudy 25 -3.9 15 -9.4 66 66 N 21 33 30.45 1031 10 16 0.00 0.00
9:52 pm 21:52 Cloudy 21 -6.1 6 -14.4 52 52 N 18 30 30.47 1032 10 16 0.00 0.00
10:52 pm 22:52 Mostly Cloudy 18 -7.8 4 -15.6 54 54 NNW 17 28 30.49 1033 10 16 0.00 0.00
11:52 pm 23:52 Mostly Clear 14 -10 -1 -18.3 51 51 NNW 15 24 30.50 1033 10 16 0.00 0.00

Powered by AerisWeather